Bookmark and Share
Track history (hours):
 

Coastal Inspiration

Last reported at 2014-Apr-23 08:33 UTC. Time now 2014-Apr-23 09:12 UTC.
Position N 49°12' W 123°57'.

Length 160 m.

Type: Passenger vessel. MMSI: 316011408.

NotesDate/timePositionNaut miles runAvg speedWind from/ knotsBaromVisibWave heightAir tempDewpointWater temp
2014-Apr-23 08:33N 49°12' W 123°57'3 3.2
2014-Apr-23 07:33N 49°10' W 123°53'1515.4
2014-Apr-23 06:33N 49°08' W 123°30'1616.3
2014-Apr-23 05:33N 49°00' W 123°08'1111.2
2014-Apr-23 04:33N 49°04' W 123°24'1919.2
2014-Apr-23 03:33N 49°13' W 123°50'1 1.0
2014-Apr-23 02:33N 49°13' W 123°51'1817.7
2014-Apr-23 01:33N 49°06' W 123°26'1313.3
2014-Apr-23 00:33N 49°00' W 123°08'1312.5
2014-Apr-22 23:33N 49°04' W 123°26'1817.7
2014-Apr-22 22:33N 49°13' W 123°50'2 1.7
2014-Apr-22 21:33N 49°12' W 123°52'1919.0
2014-Apr-22 20:33N 49°06' W 123°25'1312.7
2014-Apr-22 19:33N 49°00' W 123°08'1312.6
2014-Apr-22 18:33N 49°04' W 123°26'1918.8
2014-Apr-22 17:34N 49°13' W 123°52'1 1.0
2014-Apr-22 16:33N 49°13' W 123°50'2020.2
2014-Apr-22 15:33N 49°05' W 123°22'10 9.6
2014-Apr-22 14:30N 49°00' W 123°08'1314.1
2014-Apr-22 13:33N 49°05' W 123°27'1717.2
2014-Apr-22 12:34N 49°13' W 123°50'4 3.6
2014-Apr-22 11:33N 49°10' W 123°53'0 0.0
2014-Apr-22 10:32N 49°10' W 123°53'0 0.1
2014-Apr-22 07:33N 49°10' W 123°53'1716.9
2014-Apr-22 06:33N 49°07' W 123°28'1514.3
2014-Apr-22 05:32N 49°00' W 123°08'1212.2
2014-Apr-22 04:33N 49°04' W 123°25'1918.7
2014-Apr-22 03:33N 49°13' W 123°51'0 0.2
2014-Apr-22 02:33N 49°13' W 123°51'1817.8
2014-Apr-22 01:33N 49°06' W 123°26'1312.4
2014-Apr-22 00:32N 49°00' W 123°08'1212.5
2014-Apr-21 23:33N 49°04' W 123°26'1818.0
2014-Apr-21 22:33N 49°13' W 123°50'2 2.0
2014-Apr-21 21:33N 49°12' W 123°52'1919.4
2014-Apr-21 20:34N 49°06' W 123°25'1212.0
2014-Apr-21 19:33N 49°00' W 123°08'1313.0
2014-Apr-21 18:33N 49°04' W 123°27'1818.5
2014-Apr-21 17:34N 49°12' W 123°53'1 0.7
2014-Apr-21 16:33N 49°12' W 123°52'1717.3
2014-Apr-21 15:34N 49°06' W 123°27'1413.7
2014-Apr-21 14:33N 49°00' W 123°08'1312.6
2014-Apr-21 13:33N 49°04' W 123°26'1817.5
2014-Apr-21 12:33N 49°13' W 123°49'4 3.4
2014-Apr-21 11:18N 49°10' W 123°53'0 0.0
2014-Apr-21 10:33N 49°10' W 123°53'0 0.0
2014-Apr-21 09:27N 49°10' W 123°53'0 0.0
2014-Apr-21 08:29N 49°10' W 123°53'0 0.0
2014-Apr-21 07:33N 49°10' W 123°53'1615.9
2014-Apr-21 06:33N 49°07' W 123°29'1615.6
2014-Apr-21 05:33N 49°00' W 123°08'1212.3
2014-Apr-21 04:33N 49°04' W 123°25'1918.7
2014-Apr-21 03:33N 49°13' W 123°51'1 1.1
2014-Apr-21 02:33N 49°12' W 123°52'1818.2
2014-Apr-21 01:33N 49°06' W 123°26'1313.2
2014-Apr-21 00:33N 49°00' W 123°08'1211.8
2014-Apr-20 23:33N 49°04' W 123°25'1818.2
2014-Apr-20 22:33N 49°13' W 123°49'3 3.0
2014-Apr-20 21:34N 49°12' W 123°53'1817.8
2014-Apr-20 20:33N 49°07' W 123°27'1414.2
2014-Apr-20 19:33N 49°00' W 123°08'1211.7
2014-Apr-20 18:34N 49°04' W 123°25'1918.6
2014-Apr-20 17:34N 49°13' W 123°50'4 3.7
2014-Apr-20 16:29N 49°10' W 123°53'0 0.1
2014-Apr-20 15:28N 49°10' W 123°53'0 0.0
2014-Apr-20 14:16N 49°10' W 123°53'0 0.0
2014-Apr-20 13:33N 49°10' W 123°53'0 0.0
2014-Apr-20 12:33N 49°10' W 123°53'0 0.0
2014-Apr-20 11:33N 49°10' W 123°53'0 0.0
2014-Apr-20 10:32N 49°10' W 123°53'0 0.0
2014-Apr-20 09:32N 49°10' W 123°53'0 0.0
2014-Apr-20 08:31N 49°10' W 123°53'0 0.0
2014-Apr-20 07:31N 49°10' W 123°53'0 0.0
2014-Apr-20 06:24N 49°10' W 123°53'0 0.0
2014-Apr-20 05:30N 49°10' W 123°53'0 0.0
2014-Apr-20 04:30N 49°10' W 123°53'0 0.0
2014-Apr-20 03:32N 49°10' W 123°53'1 0.6
2014-Apr-20 02:33N 49°10' W 123°53'1818.2
2014-Apr-20 01:33N 49°08' W 123°26'1414.0
2014-Apr-20 00:33N 49°00' W 123°08'1312.6
2014-Apr-19 23:33N 49°04' W 123°26'1817.6
2014-Apr-19 22:33N 49°13' W 123°49'3 2.7
2014-Apr-19 21:33N 49°12' W 123°53'1918.6
2014-Apr-19 20:34N 49°06' W 123°26'1313.4
2014-Apr-19 19:33N 49°00' W 123°08'1211.6
2014-Apr-19 18:34N 49°04' W 123°25'1918.6
2014-Apr-19 17:33N 49°13' W 123°50'2 2.4
2014-Apr-19 16:33N 49°12' W 123°53'1818.4
2014-Apr-19 15:33N 49°06' W 123°26'1313.4
2014-Apr-19 14:33N 49°00' W 123°08'1212.1
2014-Apr-19 13:33N 49°04' W 123°25'1818.2
2014-Apr-19 12:34N 49°13' W 123°50'4 4.0
2014-Apr-19 11:32N 49°10' W 123°53'0 0.0
2014-Apr-19 10:32N 49°10' W 123°53'0 0.0
2014-Apr-19 09:32N 49°10' W 123°53'0 0.0
2014-Apr-19 08:31N 49°10' W 123°53'0 0.1
2014-Apr-19 07:33N 49°10' W 123°53'1616.0
2014-Apr-19 06:32N 49°07' W 123°29'1615.8
2014-Apr-19 05:33N 49°00' W 123°08'1212.1
2014-Apr-19 04:33N 49°04' W 123°25'1918.8
2014-Apr-19 03:33N 49°13' W 123°50'1 1.0
2014-Apr-19 02:33N 49°13' W 123°52'1918.8
2014-Apr-19 01:33N 49°06' W 123°25'1212.4
2014-Apr-19 00:33N 49°00' W 123°08'1312.9
2014-Apr-18 23:33N 49°05' W 123°27'1717.1
2014-Apr-18 22:33N 49°13' W 123°50'1 1.2
2014-Apr-18 21:33N 49°13' W 123°51'2020.0
2014-Apr-18 20:33N 49°05' W 123°23'1111.0
2014-Apr-18 19:33N 49°00' W 123°08'1211.6
2014-Apr-18 18:34N 49°03' W 123°25'1919.1
2014-Apr-18 17:33N 49°13' W 123°51'1 1.4
2014-Apr-18 16:33N 49°12' W 123°53'1918.8
2014-Apr-18 15:33N 49°06' W 123°26'1313.0
2014-Apr-18 14:34N 49°00' W 123°08'1211.9
2014-Apr-18 13:34N 49°04' W 123°25'1818.2
2014-Apr-18 12:33N 49°13' W 123°50'4 4.0
2014-Apr-18 11:32N 49°10' W 123°53'0 0.0
2014-Apr-18 10:26N 49°10' W 123°53'0 0.0
2014-Apr-18 09:32N 49°10' W 123°53'0 0.0
2014-Apr-18 08:31N 49°10' W 123°53'4 4.6
2014-Apr-18 07:33N 49°13' W 123°49'2019.6
2014-Apr-18 06:33N 49°05' W 123°22'10 9.9
2014-Apr-18 05:33N 49°00' W 123°08'1515.5
2014-Apr-18 04:33N 49°06' W 123°30'1615.7
2014-Apr-18 03:33N 49°10' W 123°53'6 5.8
2014-Apr-18 02:33N 49°13' W 123°46'1919.2
2014-Apr-18 01:34N 49°04' W 123°20'9 8.6
2014-Apr-18 00:33N 49°00' W 123°08'1414.4
2014-Apr-17 23:33N 49°06' W 123°29'1717.4
2014-Apr-17 22:34N 49°12' W 123°53'2 2.4
2014-Apr-17 21:33N 49°13' W 123°50'2020.2
2014-Apr-17 20:33N 49°05' W 123°21'10 9.8
2014-Apr-17 19:33N 49°00' W 123°08'1211.9
2014-Apr-17 18:34N 49°04' W 123°25'1918.8
2014-Apr-17 17:33N 49°13' W 123°51'2 2.0
2014-Apr-17 16:33N 49°12' W 123°53'1818.0
2014-Apr-17 15:33N 49°07' W 123°27'1413.8
2014-Apr-17 14:33N 49°00' W 123°08'1211.6
2014-Apr-17 13:33N 49°04' W 123°25'1818.3
2014-Apr-17 12:33N 49°13' W 123°49'4 3.9
2014-Apr-17 11:28N 49°10' W 123°53'0 0.0
2014-Apr-17 10:34N 49°10' W 123°53'0 0.0
2014-Apr-17 09:33N 49°10' W 123°53'0 0.0
2014-Apr-17 08:33N 49°10' W 123°53'1 1.4
2014-Apr-17 07:33N 49°11' W 123°53'1818.3
2014-Apr-17 06:33N 49°06' W 123°26'1413.5
2014-Apr-17 05:33N 49°00' W 123°08'1312.9
2014-Apr-17 04:33N 49°05' W 123°26'1818.1
2014-Apr-17 03:33N 49°13' W 123°51'0 0.4
2014-Apr-17 02:33N 49°13' W 123°51'1919.1
2014-Apr-17 01:33N 49°06' W 123°23'1111.5
2014-Apr-17 00:34N 49°00' W 123°08'1312.7
2014-Apr-16 23:33N 49°04' W 123°26'1817.6
2014-Apr-16 22:33N 49°13' W 123°50'2 2.2
2014-Apr-16 21:33N 49°12' W 123°53'1918.5
2014-Apr-16 20:33N 49°06' W 123°26'1313.2
2014-Apr-16 19:33N 49°00' W 123°08'1212.4
2014-Apr-16 18:33N 49°04' W 123°26'1818.3
2014-Apr-16 17:33N 49°13' W 123°51'1 1.0
2014-Apr-16 16:34N 49°13' W 123°52'1818.3
2014-Apr-16 15:34N 49°06' W 123°26'1313.1
2014-Apr-16 14:33N 49°00' W 123°08'1212.0
2014-Apr-16 13:33N 49°04' W 123°25'1818.1
2014-Apr-16 12:34N 49°13' W 123°49'4 4.3
2014-Apr-16 11:33N 49°10' W 123°53'0 0.1
2014-Apr-16 10:33N 49°10' W 123°53'0 0.0
2014-Apr-16 09:33N 49°10' W 123°53'0 0.0
2014-Apr-16 08:33N 49°10' W 123°53'0 0.0
2014-Apr-16 07:33N 49°10' W 123°53'1615.7
2014-Apr-16 06:33N 49°07' W 123°30'1615.9
2014-Apr-16 05:33N 49°00' W 123°08'1212.1
2014-Apr-16 04:34N 49°04' W 123°25'1918.9
2014-Apr-16 03:33N 49°13' W 123°51'0 0.4
2014-Apr-16 02:33N 49°13' W 123°52'1818.4
2014-Apr-16 01:33N 49°07' W 123°25'1313.0
2014-Apr-16 00:33N 49°00' W 123°08'1413.6
2014-Apr-15 23:33N 49°05' W 123°27'1717.5
2014-Apr-15 22:33N 49°12' W 123°52'1 1.0
2014-Apr-15 21:33N 49°12' W 123°53'1918.5
2014-Apr-15 20:33N 49°06' W 123°26'1313.3
2014-Apr-15 19:33N 49°00' W 123°08'1211.5
2014-Apr-15 18:33N 49°04' W 123°25'1919.0
2014-Apr-15 17:33N 49°13' W 123°50'0 0.4
2014-Apr-15 16:33N 49°13' W 123°50'1919.2
2014-Apr-15 15:33N 49°05' W 123°23'1110.9
2014-Apr-15 14:33N 49°00' W 123°08'13 6.4
2014-Apr-15 12:34N 49°04' W 123°26'1717.3
2014-Apr-15 11:34N 49°13' W 123°50'4 4.0
2014-Apr-15 10:34N 49°10' W 123°53'0 0.1
2014-Apr-15 09:34N 49°10' W 123°53'0 0.0
2014-Apr-15 08:34N 49°10' W 123°53'0 0.0
2014-Apr-15 07:31N 49°10' W 123°53'2 1.7
2014-Apr-15 06:34N 49°11' W 123°53'1818.2
2014-Apr-15 05:34N 49°07' W 123°26'3 1.3
2014-Apr-15 03:34N 49°04' W 123°26'1818.5
2014-Apr-15 02:34N 49°13' W 123°51'0 0.4
2014-Apr-15 01:34N 49°13' W 123°51'1918.9
2014-Apr-15 00:34N 49°07' W 123°24'1212.1
2014-Apr-14 23:33N 49°00' W 123°08'1312.9
2014-Apr-14 22:34N 49°04' W 123°27'1817.8
2014-Apr-14 21:34N 49°13' W 123°51'1 0.5
2014-Apr-14 20:34N 49°13' W 123°51'1817.8
2014-Apr-14 19:34N 49°06' W 123°26'1313.2
2014-Apr-14 18:34N 49°00' W 123°08'1211.9
2014-Apr-14 17:34N 49°04' W 123°25'1817.8
2014-Apr-14 16:33N 49°13' W 123°49'2 2.4
2014-Apr-14 15:33N 49°12' W 123°52'1918.6
2014-Apr-14 14:34N 49°06' W 123°26'1312.8
2014-Apr-14 13:33N 49°00' W 123°08'3115.6
2014-Apr-14 11:33N 49°10' W 123°53'0 0.0
2014-Apr-14 10:33N 49°10' W 123°53'0 0.0
2014-Apr-14 09:33N 49°10' W 123°53'0 0.0
2014-Apr-14 08:33N 49°10' W 123°53'0 0.0
2014-Apr-14 07:33N 49°10' W 123°53'1 0.8
2014-Apr-14 06:34N 49°11' W 123°53'1716.7
2014-Apr-14 05:33N 49°07' W 123°28'16 2.2
2014-Apr-13 22:33N 49°13' W 123°50'2 2.4
2014-Apr-13 21:33N 49°12' W 123°53'1717.4
2014-Apr-13 20:34N 49°07' W 123°28'1414.3
2014-Apr-13 19:33N 49°00' W 123°08'1211.8
2014-Apr-13 18:34N 49°04' W 123°25'1817.8
2014-Apr-13 17:33N 49°13' W 123°48'5 3.2
2014-Apr-13 16:09N 49°10' W 123°53'0 0.0
2014-Apr-13 15:33N 49°10' W 123°53'0 0.0
2014-Apr-13 14:26N 49°10' W 123°53'0 0.0
2014-Apr-13 12:20N 49°10' W 123°53'0 0.0
2014-Apr-13 11:32N 49°10' W 123°53'0 0.0
2014-Apr-13 10:31N 49°10' W 123°53'0 0.0
2014-Apr-13 09:30N 49°10' W 123°53'  

Dump ship's entire track history

sailing weather and tide predictions

Coastal Inspiration — CFN4970 — position and weather